Regional Weather Roundup
Issued by NWS Albany, NY

Home | Current Version | Previous Version | Graphics & Text | Print | Product List | Glossary On
Versions: 1 2 3 4 5 6 7 8 9 10 11 12 13 14 15 16 17 18 19 20 21 22 23 24 25 26 27 28 29 30 31 32 33 34 35 36 37 38 39 40 41 42 43 44 45 46 47 48 49 50
000
ASUS41 KALY 051010
RWRALY

NEW YORK STATE HOURLY WEATHER ROUNDUP
NATIONAL WEATHER SERVICE ALBANY NY
600 AM EDT SUN JUL 05 2015

NOTE: "FAIR" INDICATES FEW OR NO CLOUDS BELOW 12,000 FEET WITH NO
SIGNIFICANT WEATHER AND/OR NO OBSTRUCTIONS TO VISIBILITY.

NYZ032-033-038>043-046>054-057>066-NYZ062>081-051100-
EAST


CITY           SKY/WX    TMP DP  RH WIND       PRES   REMARKS
ALBANY         PTCLDY    56  54  93 CALM      30.06R FOG
GLENS FALLS    FOG       61  59  93 S3        30.05R VSB 1/4
POUGHKEEPSIE   PTCLDY    56  54  93 CALM      30.06R FOG
NEWBURGH       CLEAR     59  59 100 CALM      30.08R
MONTGOMERY     CLEAR     58  57  97 SW3       30.07R FOG
WHITE PLAINS   CLEAR     62  60  93 W3        30.07R FOG
ISLIP          PTCLDY    63  56  78 W6        30.05R
NEW YORK CITY  CLOUDY    71  59  65 W5        30.06R
CENTRAL PARK   CLOUDY    70  59  68 CALM      30.10R
$$

NYZ005>009-017-018-044>046-055-056-051100-
CENTRAL


CITY           SKY/WX    TMP DP  RH WIND       PRES   REMARKS
FULTON         CLEAR     56  54  93 CALM      30.07R FOG
SYRACUSE       PTCLDY    58  57  97 CALM      30.07R
ROME           CLEAR     55  53  93 CALM      30.08R
ELMIRA         CLOUDY    59  58  96 W3        30.10R
BINGHAMTON     FOG       58  58 100 W6        30.11R VSB<1/4
MONTICELLO     CLOUDY    57  57 100 CALM      30.12R
$$

NYZ026>034-041>043-051100-
NORTH


CITY           SKY/WX    TMP DP  RH WIND       PRES   REMARKS
WATERTOWN      PTCLDY    58  52  80 S5        30.05R
FORT DRUM      NOT AVBL
MASSENA        CLEAR     60  55  83 SW6       30.03R
SARANAC LAKE   FOG       49  49 100 CALM      30.05R VSB 1/4
PLATTSBURGH    CLOUDY    60  59  96 S3        30.01R FOG
$$

NYZ001>004-010>016-019>021-051100-
WEST


CITY           SKY/WX    TMP DP  RH WIND       PRES   REMARKS
NIAGARA FALLS  CLEAR     60  58  92 SW3       30.09R
BUFFALO        PTCLDY    58  53  84 S6        30.10R
DUNKIRK        CLEAR     59  52  77 S6        30.11R
JAMESTOWN      CLEAR     52  48  87 S3        30.15R
WELLSVILLE     CLEAR     52  50  93 MISG      30.16R FOG
ROCHESTER      CLEAR     57  54  89 SW5       30.08R
PENN YAN       CLEAR     59  57  93 SW7       30.10R
$$

             KEY
       WCI = WIND CHILL INDEX
       VSB = VISIBILITY
       HX  = HEAT INDEX
$$



USA.gov is the U.S. government's official web portal to all federal, state and local government web resources and services.